Time,TemperatureF,DewpointF,PressureIn,WindDirection,WindDirectionDegrees,WindSpeedMPH,WindSpeedGustMPH,Humidity,HourlyPrecipIn,Conditions,Clouds,dailyrainin,SoftwareType,DateUTC
2013-03-01 00:01:00,32.4,32.4,30.09,North,357,3.1,3.1,100,0.00,,,0.00,VWS V14.01,2013-03-01 06:01:00,
2013-03-01 00:06:00,32.4,32.4,30.09,North,357,0.0,2.2,100,0.00,,,0.00,VWS V14.01,2013-03-01 06:06:00,
2013-03-01 00:11:00,32.2,32.2,30.09,North,0,4.0,4.0,100,0.00,,,0.00,VWS V14.01,2013-03-01 06:11:00,
2013-03-01 00:16:00,32.2,32.2,30.09,North,6,3.1,6.3,100,0.00,,,0.00,VWS V14.01,2013-03-01 06:16:00,
2013-03-01 00:22:00,32.0,32.0,30.09,NNE,19,11.0,11.0,100,0.00,,,0.00,VWS V14.01,2013-03-01 06:22:00,
2013-03-01 00:27:00,31.8,31.8,30.09,NNE,31,2.2,5.4,100,0.00,,,0.00,VWS V14.01,2013-03-01 06:27:00,
2013-03-01 00:32:00,31.6,31.6,30.09,North,0,4.0,5.8,100,0.00,,,0.00,VWS V14.01,2013-03-01 06:32:00,
2013-03-01 00:37:00,31.6,31.6,30.09,NE,40,7.6,7.6,100,0.00,,,0.00,VWS V14.01,2013-03-01 06:37:00,
2013-03-01 00:42:00,31.5,31.5,30.09,North,10,6.3,6.3,100,0.00,,OVC050,0.00,VWS V14.01,2013-03-01 06:42:00,
2013-03-01 00:47:00,31.3,31.3,30.09,NE,43,2.7,5.4,100,0.00,,OVC050,0.00,VWS V14.01,2013-03-01 06:47:00,
2013-03-01 00:52:00,31.3,31.3,30.09,ENE,59,3.1,4.9,100,0.00,,OVC050,0.00,VWS V14.01,2013-03-01 06:52:00,
2013-03-01 00:57:00,31.3,31.3,30.09,NE,36,0.0,4.0,100,0.00,,OVC050,0.00,VWS V14.01,2013-03-01 06:57:00,
2013-03-01 01:02:00,31.3,31.3,30.09,NNE,20,2.2,7.6,100,0.00,,,0.00,VWS V14.01,2013-03-01 07:02:00,
2013-03-01 01:07:00,31.1,31.1,30.09,North,11,6.7,10.5,100,0.00,,,0.00,VWS V14.01,2013-03-01 07:07:00,
2013-03-01 01:12:00,31.1,31.1,30.09,NE,41,3.6,6.3,100,0.00,,,0.00,VWS V14.01,2013-03-01 07:12:00,
2013-03-01 01:17:00,31.1,31.1,30.09,NE,46,4.0,7.6,100,0.00,,,0.00,VWS V14.01,2013-03-01 07:17:00,
2013-03-01 01:22:00,30.7,30.7,30.09,North,357,5.4,8.7,100,0.00,,,0.00,VWS V14.01,2013-03-01 07:22:00,
2013-03-01 01:27:00,30.6,30.6,30.09,ENE,59,3.1,8.3,100,0.00,,,0.00,VWS V14.01,2013-03-01 07:27:00,
2013-03-01 01:33:00,30.2,30.2,30.09,NE,46,6.3,9.6,100,0.00,,,0.00,VWS V14.01,2013-03-01 07:33:00,
2013-03-01 01:38:00,30.2,30.2,30.09,NNE,32,5.8,5.8,100,0.00,,,0.00,VWS V14.01,2013-03-01 07:38:00,
2013-03-01 01:43:00,30.0,30.0,30.09,NE,35,5.4,6.3,100,0.00,,,0.00,VWS V14.01,2013-03-01 07:43:00,
2013-03-01 01:48:00,29.8,29.8,30.09,North,10,4.0,8.3,100,0.00,,,0.00,VWS V14.01,2013-03-01 07:48:00,
2013-03-01 01:53:00,29.8,29.8,30.09,NE,45,4.0,5.4,100,0.00,,,0.00,VWS V14.01,2013-03-01 07:53:00,
2013-03-01 01:58:00,29.8,29.3,30.09,NE,53,3.1,8.1,98,0.00,,,0.00,VWS V14.01,2013-03-01 07:58:00,
2013-03-01 02:03:00,29.8,29.3,30.09,NE,50,5.4,5.8,98,0.00,,,0.00,VWS V14.01,2013-03-01 08:03:00,
2013-03-01 02:08:00,29.8,29.3,30.09,North,5,3.1,8.1,98,0.00,,,0.00,VWS V14.01,2013-03-01 08:08:00,
2013-03-01 02:13:00,29.8,29.3,30.09,NE,49,8.1,8.7,98,0.00,,,0.00,VWS V14.01,2013-03-01 08:13:00,
2013-03-01 02:18:00,29.7,29.2,30.09,NE,36,4.0,8.3,98,0.00,,,0.00,VWS V14.01,2013-03-01 08:18:00,
2013-03-01 02:23:00,29.7,29.2,30.09,North,353,5.4,8.1,98,0.00,,,0.00,VWS V14.01,2013-03-01 08:23:00,
2013-03-01 02:28:00,29.7,29.2,30.09,North,0,3.1,8.3,98,0.00,,,0.00,VWS V14.01,2013-03-01 08:28:00,
2013-03-01 02:33:00,29.5,29.5,30.09,North,353,4.0,5.4,100,0.00,,,0.00,VWS V14.01,2013-03-01 08:33:00,
2013-03-01 02:38:00,29.5,29.5,30.09,NE,50,5.4,6.3,100,0.00,,,0.00,VWS V14.01,2013-03-01 08:38:00,
2013-03-01 02:43:00,29.3,29.3,30.09,NNE,20,2.2,5.4,100,0.00,,,0.00,VWS V14.01,2013-03-01 08:43:00,
2013-03-01 02:48:00,29.1,29.1,30.09,North,0,6.3,8.1,100,0.00,,,0.00,VWS V14.01,2013-03-01 08:48:00,
2013-03-01 02:54:00,29.1,29.1,30.09,North,357,7.6,7.6,100,0.00,,,0.00,VWS V14.01,2013-03-01 08:54:00,
2013-03-01 02:59:00,28.9,28.9,30.09,NE,41,2.2,5.8,100,0.00,,,0.00,VWS V14.01,2013-03-01 08:59:00,
2013-03-01 03:04:00,28.9,28.9,30.09,NE,35,0.0,0.0,100,0.00,,,0.00,VWS V14.01,2013-03-01 09:04:00,
2013-03-01 03:09:00,28.9,28.9,30.09,NE,44,0.0,4.9,100,0.00,,,0.00,VWS V14.01,2013-03-01 09:09:00,
2013-03-01 03:14:00,28.9,28.9,30.09,North,353,4.9,5.4,100,0.00,,,0.00,VWS V14.01,2013-03-01 09:14:00,
2013-03-01 03:19:00,28.8,28.8,30.09,NNW,329,2.2,5.4,100,0.00,,,0.00,VWS V14.01,2013-03-01 09:19:00,
2013-03-01 03:24:00,28.8,28.8,30.09,NNW,341,5.4,5.4,100,0.00,,,0.00,VWS V14.01,2013-03-01 09:24:00,
2013-03-01 03:29:00,28.8,28.8,30.09,NNE,19,2.7,5.8,100,0.00,,,0.00,VWS V14.01,2013-03-01 09:29:00,
2013-03-01 03:34:00,28.6,28.6,30.09,NNE,13,3.1,5.8,100,0.00,,,0.00,VWS V14.01,2013-03-01 09:34:00,
2013-03-01 03:39:00,28.6,28.6,30.09,North,357,3.6,4.0,100,0.00,,,0.00,VWS V14.01,2013-03-01 09:39:00,
2013-03-01 03:44:00,28.6,28.6,30.09,NNW,342,3.1,5.4,100,0.00,,,0.00,VWS V14.01,2013-03-01 09:44:00,
2013-03-01 03:49:00,28.4,28.4,30.09,North,353,2.2,6.3,100,0.00,,,0.00,VWS V14.01,2013-03-01 09:49:00,
2013-03-01 03:54:00,28.2,28.2,30.09,NNE,17,4.0,8.1,100,0.00,,,0.00,VWS V14.01,2013-03-01 09:54:00,
2013-03-01 03:59:00,28.0,28.0,30.09,NNW,337,4.0,8.1,100,0.00,,,0.00,VWS V14.01,2013-03-01 09:59:00,
2013-03-01 04:04:00,28.0,28.0,30.09,NNW,342,7.2,7.2,100,0.00,,,0.00,VWS V14.01,2013-03-01 10:04:00,
2013-03-01 04:09:00,27.9,27.9,30.09,NNE,21,6.3,6.3,100,0.00,,OVC080,0.00,VWS V14.01,2013-03-01 10:09:00,
2013-03-01 04:15:00,27.9,27.9,30.09,NNW,330,8.3,8.3,100,0.00,,OVC080,0.00,VWS V14.01,2013-03-01 10:15:00,
2013-03-01 04:20:00,27.9,27.9,30.09,NNW,344,8.7,8.7,100,0.00,,OVC070,0.00,VWS V14.01,2013-03-01 10:20:00,
2013-03-01 04:25:00,27.9,27.9,30.09,North,11,6.3,10.1,100,0.00,,OVC070,0.00,VWS V14.01,2013-03-01 10:25:00,
2013-03-01 04:30:00,27.7,27.7,30.09,NNE,19,4.9,8.7,100,0.00,,OVC070,0.00,VWS V14.01,2013-03-01 10:30:00,
2013-03-01 04:35:00,27.7,27.7,30.09,North,357,8.1,8.7,100,0.00,,OVC070,0.00,VWS V14.01,2013-03-01 10:35:00,
2013-03-01 04:40:00,27.5,27.0,30.09,North,353,8.1,8.7,98,0.00,,OVC070,0.00,VWS V14.01,2013-03-01 10:40:00,
2013-03-01 04:45:00,27.5,27.0,30.09,North,0,5.8,8.3,98,0.00,,OVC070,0.00,VWS V14.01,2013-03-01 10:45:00,
2013-03-01 04:50:00,27.3,26.8,30.09,NNW,332,3.1,8.3,98,0.00,,OVC070,0.00,VWS V14.01,2013-03-01 10:50:00,
2013-03-01 04:55:00,27.3,26.8,30.09,North,0,6.3,6.3,98,0.00,,OVC070,0.00,VWS V14.01,2013-03-01 10:55:00,
2013-03-01 05:00:00,27.1,26.6,30.11,NNW,336,5.4,5.4,98,0.00,,OVC070,0.00,VWS V14.01,2013-03-01 11:00:00,
2013-03-01 05:05:00,27.1,26.6,30.11,North,3,3.6,5.4,98,0.00,,OVC036,0.00,VWS V14.01,2013-03-01 11:05:00,
2013-03-01 05:10:00,27.1,26.6,30.11,North,0,5.8,6.3,98,0.00,,OVC036,0.00,VWS V14.01,2013-03-01 11:10:00,
2013-03-01 05:15:00,27.0,26.5,30.11,North,357,5.4,8.7,98,0.00,,OVC036,0.00,VWS V14.01,2013-03-01 11:15:00,
2013-03-01 05:20:00,27.0,26.5,30.11,NNW,334,5.8,5.8,98,0.00,,OVC036,0.00,VWS V14.01,2013-03-01 11:20:00,
2013-03-01 05:25:00,27.0,26.5,30.11,NNW,344,6.7,10.5,98,0.00,,,0.00,VWS V14.01,2013-03-01 11:25:00,
2013-03-01 05:30:00,26.8,26.3,30.11,NE,45,5.4,5.8,98,0.00,,,0.00,VWS V14.01,2013-03-01 11:30:00,
2013-03-01 05:35:00,26.6,26.6,30.11,North,7,3.1,5.4,100,0.00,,,0.00,VWS V14.01,2013-03-01 11:35:00,
2013-03-01 05:40:00,26.6,26.6,30.11,North,353,4.0,4.9,100,0.00,,,0.00,VWS V14.01,2013-03-01 11:40:00,
2013-03-01 05:45:00,26.4,26.4,30.11,NNW,334,5.4,5.4,100,0.00,,,0.00,VWS V14.01,2013-03-01 11:45:00,
2013-03-01 05:50:00,26.4,26.4,30.11,North,350,5.8,6.7,100,0.00,,,0.00,VWS V14.01,2013-03-01 11:50:00,
2013-03-01 05:55:00,26.2,26.2,30.11,NNW,337,8.3,8.3,100,0.00,,,0.00,VWS V14.01,2013-03-01 11:55:00,
2013-03-01 06:00:00,26.2,26.2,30.11,North,350,6.3,6.3,100,0.00,,,0.00,VWS V14.01,2013-03-01 12:00:00,
2013-03-01 06:05:00,26.2,26.2,30.11,North,357,2.7,4.9,100,0.00,,,0.00,VWS V14.01,2013-03-01 12:05:00,
2013-03-01 06:10:00,26.2,26.2,30.11,North,357,7.6,7.6,100,0.00,,,0.00,VWS V14.01,2013-03-01 12:10:00,
2013-03-01 06:15:00,26.2,26.2,30.11,NNW,346,6.3,6.3,100,0.00,,,0.00,VWS V14.01,2013-03-01 12:15:00,
2013-03-01 06:20:00,26.1,26.1,30.11,NNE,15,4.0,6.7,100,0.00,,,0.00,VWS V14.01,2013-03-01 12:20:00,
2013-03-01 06:26:00,26.1,26.1,30.11,North,353,6.7,8.3,100,0.00,,,0.00,VWS V14.01,2013-03-01 12:26:00,
2013-03-01 06:31:00,26.1,26.1,30.11,NE,34,4.9,8.7,100,0.00,,,0.00,VWS V14.01,2013-03-01 12:31:00,
2013-03-01 06:36:00,26.1,26.1,30.11,NNW,341,8.1,8.1,100,0.00,,,0.00,VWS V14.01,2013-03-01 12:36:00,
2013-03-01 06:41:00,26.1,26.1,30.11,North,9,3.1,6.3,100,0.00,,,0.00,VWS V14.01,2013-03-01 12:41:00,
2013-03-01 06:46:00,25.9,25.9,30.11,NE,37,6.3,8.7,100,0.00,,OVC039,0.00,VWS V14.01,2013-03-01 12:46:00,
2013-03-01 06:51:00,25.9,25.9,30.11,NNW,344,4.0,8.3,100,0.00,,OVC039,0.00,VWS V14.01,2013-03-01 12:51:00,
2013-03-01 06:56:00,25.9,25.9,30.11,NW,322,7.6,12.8,100,0.00,,OVC039,0.00,VWS V14.01,2013-03-01 12:56:00,
2013-03-01 07:01:00,25.9,25.9,30.11,NNW,348,5.4,7.6,100,0.00,,OVC039,0.00,VWS V14.01,2013-03-01 13:01:00,
2013-03-01 07:06:00,25.9,25.9,30.11,NNW,342,5.4,8.1,100,0.00,,OVC038,0.00,VWS V14.01,2013-03-01 13:06:00,
2013-03-01 07:11:00,25.7,25.7,30.11,NNE,25,4.0,8.3,100,0.00,,OVC038,0.00,VWS V14.01,2013-03-01 13:11:00,
2013-03-01 07:16:00,25.7,25.7,30.14,North,357,3.6,7.2,100,0.00,,OVC038,0.00,VWS V14.01,2013-03-01 13:16:00,
2013-03-01 07:22:00,25.7,25.7,30.14,NNW,348,10.1,10.1,100,0.00,,OVC038,0.00,VWS V14.01,2013-03-01 13:22:00,
2013-03-01 07:27:00,25.7,25.7,30.14,North,0,5.8,5.8,100,0.00,,,0.00,VWS V14.01,2013-03-01 13:27:00,
2013-03-01 07:32:00,25.9,25.9,30.14,North,357,6.3,7.2,100,0.00,,,0.00,VWS V14.01,2013-03-01 13:32:00,
2013-03-01 07:37:00,25.9,25.9,30.14,North,1,2.2,5.4,100,0.00,,,0.00,VWS V14.01,2013-03-01 13:37:00,
2013-03-01 07:42:00,26.1,26.1,30.14,North,353,7.6,7.6,100,0.00,,,0.00,VWS V14.01,2013-03-01 13:42:00,
2013-03-01 07:47:00,26.1,26.1,30.14,North,357,8.3,8.7,100,0.00,,,0.00,VWS V14.01,2013-03-01 13:47:00,
2013-03-01 07:52:00,26.2,26.2,30.14,North,357,6.3,9.2,100,0.00,,,0.00,VWS V14.01,2013-03-01 13:52:00,
2013-03-01 07:57:00,26.2,26.2,30.14,North,357,5.8,9.6,100,0.00,,,0.00,VWS V14.01,2013-03-01 13:57:00,
2013-03-01 08:02:00,26.4,26.4,30.14,North,353,8.1,10.5,100,0.00,,,0.00,VWS V14.01,2013-03-01 14:02:00,
2013-03-01 08:07:00,26.8,26.8,30.14,NNW,343,5.8,11.0,100,0.00,,,0.00,VWS V14.01,2013-03-01 14:07:00,
2013-03-01 08:12:00,27.0,27.0,30.14,NNE,16,4.0,11.0,100,0.00,,,0.00,VWS V14.01,2013-03-01 14:12:00,
2013-03-01 08:17:00,27.1,26.6,30.14,NE,37,7.2,11.0,98,0.00,,,0.00,VWS V14.01,2013-03-01 14:17:00,
2013-03-01 08:23:00,27.3,26.8,30.14,North,0,4.9,10.1,98,0.00,,,0.00,VWS V14.01,2013-03-01 14:23:00,
2013-03-01 08:28:00,27.3,26.8,30.14,North,350,10.5,10.5,98,0.00,,,0.00,VWS V14.01,2013-03-01 14:28:00,
2013-03-01 08:33:00,27.3,26.8,30.14,NNW,341,5.8,11.0,98,0.00,,,0.00,VWS V14.01,2013-03-01 14:33:00,
2013-03-01 08:38:00,27.3,26.8,30.14,North,6,5.4,11.0,98,0.00,,,0.00,VWS V14.01,2013-03-01 14:38:00,
2013-03-01 08:43:00,27.3,26.8,30.14,North,353,5.8,11.4,98,0.00,,,0.00,VWS V14.01,2013-03-01 14:43:00,
2013-03-01 08:48:00,27.5,27.0,30.14,North,353,5.4,10.5,98,0.00,,,0.00,VWS V14.01,2013-03-01 14:48:00,
2013-03-01 08:53:00,27.7,27.2,30.14,North,1,5.8,6.3,98,0.00,,,0.00,VWS V14.01,2013-03-01 14:53:00,
2013-03-01 08:58:00,27.9,27.4,30.14,North,357,3.6,11.4,98,0.00,,,0.00,VWS V14.01,2013-03-01 14:58:00,
2013-03-01 09:03:00,27.9,27.4,30.14,NE,41,5.4,8.3,98,0.00,,,0.00,VWS V14.01,2013-03-01 15:03:00,
2013-03-01 09:08:00,27.9,27.4,30.14,North,3,5.8,7.2,98,0.00,,,0.00,VWS V14.01,2013-03-01 15:08:00,
2013-03-01 09:14:00,27.7,27.2,30.14,North,0,5.8,11.0,98,0.00,,,0.00,VWS V14.01,2013-03-01 15:14:00,
2013-03-01 09:19:00,27.9,27.4,30.14,ENE,66,2.7,9.6,98,0.00,,,0.00,VWS V14.01,2013-03-01 15:19:00,
2013-03-01 09:24:00,27.7,27.2,30.14,NNW,332,3.6,11.0,98,0.00,,,0.00,VWS V14.01,2013-03-01 15:24:00,
2013-03-01 09:29:00,27.9,27.4,30.14,NNW,341,6.3,11.0,98,0.00,,,0.00,VWS V14.01,2013-03-01 15:29:00,
2013-03-01 09:34:00,27.9,27.4,30.14,North,0,7.6,8.3,98,0.00,,,0.00,VWS V14.01,2013-03-01 15:34:00,
2013-03-01 09:39:00,27.9,27.4,30.14,NNW,342,8.1,12.3,98,0.00,,,0.00,VWS V14.01,2013-03-01 15:39:00,
2013-03-01 09:44:00,27.9,27.4,30.14,NNW,329,8.1,12.3,98,0.00,,,0.00,VWS V14.01,2013-03-01 15:44:00,
2013-03-01 09:49:00,27.9,27.4,30.14,North,0,2.7,11.9,98,0.00,,,0.00,VWS V14.01,2013-03-01 15:49:00,
2013-03-01 09:54:00,27.7,27.2,30.14,North,349,2.7,12.3,98,0.00,,,0.00,VWS V14.01,2013-03-01 15:54:00,
2013-03-01 09:59:00,27.7,27.2,30.14,North,353,8.3,11.0,98,0.00,,,0.00,VWS V14.01,2013-03-01 15:59:00,
2013-03-01 10:04:00,27.7,27.2,30.14,NNE,12,4.9,10.1,98,0.00,,,0.00,VWS V14.01,2013-03-01 16:04:00,
2013-03-01 10:10:00,27.7,27.2,30.14,NNE,15,8.7,11.9,98,0.00,,,0.00,VWS V14.01,2013-03-01 16:10:00,
2013-03-01 10:15:00,27.7,27.2,30.14,NNW,346,10.5,11.4,98,0.00,,,0.00,VWS V14.01,2013-03-01 16:15:00,
2013-03-01 10:20:00,27.7,27.2,30.14,NNW,341,8.7,12.8,98,0.00,,,0.00,VWS V14.01,2013-03-01 16:20:00,
2013-03-01 10:25:00,27.9,27.4,30.14,North,1,8.3,13.2,98,0.00,,,0.00,VWS V14.01,2013-03-01 16:25:00,
2013-03-01 10:30:00,27.9,27.4,30.14,North,0,6.7,11.4,98,0.00,,,0.00,VWS V14.01,2013-03-01 16:30:00,
2013-03-01 10:35:00,28.0,27.5,30.14,North,0,6.3,7.6,98,0.00,,,0.00,VWS V14.01,2013-03-01 16:35:00,
2013-03-01 10:40:00,28.2,27.7,30.14,NNW,340,6.3,8.1,98,0.00,,,0.00,VWS V14.01,2013-03-01 16:40:00,
2013-03-01 10:45:00,28.4,27.9,30.14,North,357,7.6,10.5,98,0.00,,,0.00,VWS V14.01,2013-03-01 16:45:00,
2013-03-01 10:50:00,28.8,28.3,30.14,NNW,339,8.3,8.3,98,0.00,,,0.00,VWS V14.01,2013-03-01 16:50:00,
2013-03-01 10:55:00,29.1,28.6,30.14,NNW,337,7.6,7.6,98,0.00,,,0.00,VWS V14.01,2013-03-01 16:55:00,
2013-03-01 11:00:00,29.5,29.0,30.14,North,0,6.3,10.5,98,0.00,,,0.00,VWS V14.01,2013-03-01 17:00:00,
2013-03-01 11:05:00,29.5,29.0,30.14,North,357,10.1,10.1,98,0.00,,OVC015,0.00,VWS V14.01,2013-03-01 17:05:00,
2013-03-01 11:10:00,29.5,26.2,30.14,North,0,9.2,12.8,88,0.00,,OVC015,0.00,VWS V14.01,2013-03-01 17:10:00,
2013-03-01 11:15:00,29.5,26.2,30.14,North,357,7.6,11.0,88,0.00,,OVC015,0.00,VWS V14.01,2013-03-01 17:15:00,
2013-03-01 11:21:00,29.5,26.2,30.14,NNE,18,3.6,11.0,88,0.00,,OVC015,0.00,VWS V14.01,2013-03-01 17:21:00,
2013-03-01 11:26:00,29.7,26.4,30.14,North,350,8.3,8.7,88,0.00,,OVC015,0.00,VWS V14.01,2013-03-01 17:26:00,
2013-03-01 11:31:00,30.0,26.8,30.14,North,1,6.3,6.3,88,0.00,,OVC015,0.00,VWS V14.01,2013-03-01 17:31:00,
2013-03-01 11:36:00,30.2,26.9,30.14,NE,55,4.9,8.7,88,0.00,,OVC015,0.00,VWS V14.01,2013-03-01 17:36:00,
2013-03-01 11:41:00,30.6,27.3,30.14,NNW,341,6.3,8.7,88,0.00,,OVC015,0.00,VWS V14.01,2013-03-01 17:41:00,
2013-03-01 11:46:00,30.6,27.3,30.14,NNE,25,4.0,8.1,88,0.00,,OVC015,0.00,VWS V14.01,2013-03-01 17:46:00,
2013-03-01 11:51:00,30.7,27.5,30.14,North,357,5.4,8.3,88,0.00,,OVC015,0.00,VWS V14.01,2013-03-01 17:51:00,
2013-03-01 11:56:00,30.7,27.5,30.14,North,350,5.4,12.3,88,0.00,,OVC015,0.00,VWS V14.01,2013-03-01 17:56:00,
2013-03-01 12:01:00,30.6,27.3,30.14,NNE,22,8.7,8.7,88,0.00,,OVC015,0.00,VWS V14.01,2013-03-01 18:01:00,
2013-03-01 12:06:00,30.7,27.5,30.14,North,0,5.4,11.0,88,0.00,,OVC015,0.00,VWS V14.01,2013-03-01 18:06:00,
2013-03-01 12:11:00,30.6,27.3,30.14,North,357,7.6,12.3,88,0.00,,OVC015,0.00,VWS V14.01,2013-03-01 18:11:00,
2013-03-01 12:16:00,30.7,27.5,30.14,North,357,4.9,7.6,88,0.00,,OVC015,0.00,VWS V14.01,2013-03-01 18:16:00,
2013-03-01 12:22:00,30.6,27.3,30.14,NNE,33,5.8,6.3,88,0.00,,OVC015,0.00,VWS V14.01,2013-03-01 18:22:00,
2013-03-01 12:27:00,30.6,27.3,30.14,NNE,18,5.8,10.5,88,0.00,,OVC015,0.00,VWS V14.01,2013-03-01 18:27:00,
2013-03-01 12:32:00,30.6,27.3,30.14,North,353,4.0,10.1,88,0.00,,OVC015,0.00,VWS V14.01,2013-03-01 18:32:00,
2013-03-01 12:37:00,30.6,27.3,30.14,North,5,8.3,10.5,88,0.00,,OVC015,0.00,VWS V14.01,2013-03-01 18:37:00,
2013-03-01 12:42:00,30.7,27.5,30.14,North,357,8.7,10.5,88,0.00,,OVC015,0.00,VWS V14.01,2013-03-01 18:42:00,
2013-03-01 12:47:00,30.9,27.6,30.14,NNW,342,10.1,10.1,88,0.00,,OVC015,0.00,VWS V14.01,2013-03-01 18:47:00,
2013-03-01 12:52:00,31.1,27.8,30.14,NW,309,2.7,5.4,88,0.00,,OVC015,0.00,VWS V14.01,2013-03-01 18:52:00,
2013-03-01 12:57:00,31.1,27.8,30.14,NNW,331,8.7,8.7,88,0.00,,OVC015,0.00,VWS V14.01,2013-03-01 18:57:00,
2013-03-01 13:02:00,31.1,27.8,30.14,NE,37,3.6,8.7,88,0.00,,OVC015,0.00,VWS V14.01,2013-03-01 19:02:00,
2013-03-01 13:07:00,31.1,27.8,30.14,North,353,5.8,8.3,88,0.00,,OVC015,0.00,VWS V14.01,2013-03-01 19:07:00,
2013-03-01 13:12:00,30.9,27.6,30.14,North,1,8.1,8.3,88,0.00,,OVC015,0.00,VWS V14.01,2013-03-01 19:12:00,
2013-03-01 13:17:00,30.9,27.6,30.11,NNW,348,7.6,9.2,88,0.00,,OVC015,0.00,VWS V14.01,2013-03-01 19:17:00,
2013-03-01 13:23:00,31.1,27.8,30.11,NNW,343,9.2,9.2,88,0.00,,OVC017,0.00,VWS V14.01,2013-03-01 19:23:00,
2013-03-01 13:28:00,31.1,27.8,30.11,North,8,8.3,8.3,88,0.00,,OVC017,0.00,VWS V14.01,2013-03-01 19:28:00,
2013-03-01 13:33:00,31.1,27.8,30.14,NW,308,4.5,8.1,88,0.00,,OVC017,0.00,VWS V14.01,2013-03-01 19:33:00,
2013-03-01 13:38:00,31.1,27.8,30.14,North,350,8.7,8.7,88,0.00,,OVC017,0.00,VWS V14.01,2013-03-01 19:38:00,
2013-03-01 13:43:00,31.1,27.8,30.14,NE,36,5.4,8.1,88,0.00,,OVC017,0.00,VWS V14.01,2013-03-01 19:43:00,
2013-03-01 13:48:00,31.1,27.8,30.14,NNW,343,5.8,8.7,88,0.00,,OVC017,0.00,VWS V14.01,2013-03-01 19:48:00,
2013-03-01 13:53:00,30.9,27.6,30.14,North,357,4.0,6.7,88,0.00,,OVC017,0.00,VWS V14.01,2013-03-01 19:53:00,
2013-03-01 13:58:00,30.9,27.6,30.14,North,4,6.3,12.8,88,0.00,,OVC017,0.00,VWS V14.01,2013-03-01 19:58:00,
2013-03-01 14:03:00,31.1,27.8,30.14,North,0,6.3,6.3,88,0.00,,OVC017,0.00,VWS V14.01,2013-03-01 20:03:00,
2013-03-01 14:08:00,30.9,27.6,30.14,NE,56,4.0,7.6,88,0.00,,OVC017,0.00,VWS V14.01,2013-03-01 20:08:00,
2013-03-01 14:13:00,30.9,27.6,30.14,North,357,6.3,6.3,88,0.00,,OVC017,0.00,VWS V14.01,2013-03-01 20:13:00,
2013-03-01 14:18:00,30.7,27.5,30.14,North,0,5.8,8.1,88,0.00,,OVC017,0.00,VWS V14.01,2013-03-01 20:18:00,
2013-03-01 14:24:00,30.6,27.3,30.14,North,353,3.6,10.1,88,0.00,,OVC048,0.00,VWS V14.01,2013-03-01 20:24:00,
2013-03-01 14:29:00,30.6,27.3,30.14,NE,53,3.1,7.6,88,0.00,,OVC048,0.00,VWS V14.01,2013-03-01 20:29:00,
2013-03-01 14:34:00,30.6,27.3,30.14,NE,42,6.3,6.3,88,0.00,,OVC048,0.00,VWS V14.01,2013-03-01 20:34:00,
2013-03-01 14:39:00,30.6,27.3,30.14,NNE,29,2.7,9.2,88,0.00,,OVC048,0.00,VWS V14.01,2013-03-01 20:39:00,
2013-03-01 14:44:00,30.4,27.1,30.14,North,3,8.7,8.7,88,0.00,,OVC050,0.00,VWS V14.01,2013-03-01 20:44:00,
2013-03-01 14:49:00,30.4,27.1,30.14,North,353,5.8,10.1,88,0.00,,OVC050,0.00,VWS V14.01,2013-03-01 20:49:00,
2013-03-01 14:54:00,30.2,26.9,30.14,North,8,4.5,10.5,88,0.00,,OVC050,0.00,VWS V14.01,2013-03-01 20:54:00,
2013-03-01 14:59:00,30.4,27.1,30.14,NNE,27,3.1,7.6,88,0.00,,OVC050,0.00,VWS V14.01,2013-03-01 20:59:00,
2013-03-01 15:04:00,30.4,27.1,30.14,North,353,5.8,8.1,88,0.00,,OVC050,0.00,VWS V14.01,2013-03-01 21:04:00,
2013-03-01 15:09:00,30.6,27.3,30.14,NNW,344,5.8,8.3,88,0.00,,OVC050,0.00,VWS V14.01,2013-03-01 21:09:00,
2013-03-01 15:14:00,30.4,27.1,30.14,NNE,30,5.4,8.7,88,0.00,,OVC050,0.00,VWS V14.01,2013-03-01 21:14:00,
2013-03-01 15:19:00,30.2,26.9,30.14,North,357,6.3,8.3,88,0.00,,OVC050,0.00,VWS V14.01,2013-03-01 21:19:00,
2013-03-01 15:25:00,30.0,26.8,30.14,NE,38,3.1,10.1,88,0.00,,OVC050,0.00,VWS V14.01,2013-03-01 21:25:00,
2013-03-01 15:30:00,29.7,26.4,30.17,North,0,5.4,8.3,88,0.00,,OVC050,0.00,VWS V14.01,2013-03-01 21:30:00,
2013-03-01 15:35:00,29.5,26.2,30.17,North,357,8.3,10.5,88,0.00,,OVC050,0.00,VWS V14.01,2013-03-01 21:35:00,
2013-03-01 15:40:00,29.3,26.1,30.17,North,6,8.3,8.3,88,0.00,,OVC050,0.00,VWS V14.01,2013-03-01 21:40:00,
2013-03-01 15:45:00,29.3,26.1,30.17,North,357,8.7,10.1,88,0.00,,OVC050,0.00,VWS V14.01,2013-03-01 21:45:00,
2013-03-01 15:50:00,29.3,26.1,30.17,NNW,327,7.6,7.6,88,0.00,,OVC050,0.00,VWS V14.01,2013-03-01 21:50:00,
2013-03-01 15:55:00,29.3,26.1,30.17,NNW,339,4.0,6.3,88,0.00,,OVC050,0.00,VWS V14.01,2013-03-01 21:55:00,
2013-03-01 16:00:00,29.3,26.1,30.17,North,0,4.0,6.3,88,0.00,,OVC050,0.00,VWS V14.01,2013-03-01 22:00:00,
2013-03-01 16:05:00,29.1,25.9,30.17,NNW,336,3.1,5.8,88,0.00,,OVC050,0.00,VWS V14.01,2013-03-01 22:05:00,
2013-03-01 16:10:00,28.9,25.7,30.17,NE,48,4.9,4.9,88,0.00,,OVC050,0.00,VWS V14.01,2013-03-01 22:10:00,
2013-03-01 16:15:00,28.8,25.5,30.17,North,1,4.9,5.8,88,0.00,,OVC050,0.00,VWS V14.01,2013-03-01 22:15:00,
2013-03-01 16:20:00,28.6,25.4,30.17,North,357,5.4,5.4,88,0.00,,OVC050,0.00,VWS V14.01,2013-03-01 22:20:00,
2013-03-01 16:25:00,28.6,25.4,30.17,North,357,9.6,9.6,88,0.00,,OVC050,0.00,VWS V14.01,2013-03-01 22:25:00,
2013-03-01 16:31:00,28.4,26.1,30.17,NNW,342,3.6,8.7,91,0.00,,OVC050,0.00,VWS V14.01,2013-03-01 22:31:00,
2013-03-01 16:36:00,28.2,25.9,30.17,North,2,8.1,8.1,91,0.00,,OVC050,0.00,VWS V14.01,2013-03-01 22:36:00,
2013-03-01 16:41:00,28.0,25.8,30.17,North,353,6.3,7.6,91,0.00,,OVC050,0.00,VWS V14.01,2013-03-01 22:41:00,
2013-03-01 16:46:00,27.9,25.6,30.17,North,0,6.3,6.3,91,0.00,,OVC050,0.00,VWS V14.01,2013-03-01 22:46:00,
2013-03-01 16:51:00,27.9,27.4,30.17,NNE,32,4.0,6.3,98,0.00,,OVC050,0.00,VWS V14.01,2013-03-01 22:51:00,
2013-03-01 16:56:00,27.9,27.4,30.17,North,357,5.4,8.1,98,0.00,,OVC050,0.00,VWS V14.01,2013-03-01 22:56:00,
2013-03-01 17:01:00,27.7,27.2,30.17,NW,326,5.8,6.3,98,0.00,,OVC050,0.00,VWS V14.01,2013-03-01 23:01:00,
2013-03-01 17:06:00,27.5,27.0,30.17,NNW,343,4.0,8.7,98,0.00,,OVC050,0.00,VWS V14.01,2013-03-01 23:06:00,
2013-03-01 17:11:00,27.3,26.8,30.17,North,353,5.8,11.0,98,0.00,,OVC050,0.00,VWS V14.01,2013-03-01 23:11:00,
2013-03-01 17:16:00,27.3,26.8,30.17,North,8,5.4,10.5,98,0.00,,OVC050,0.00,VWS V14.01,2013-03-01 23:16:00,
2013-03-01 17:22:00,27.1,26.6,30.17,North,10,4.0,8.1,98,0.00,,OVC050,0.00,VWS V14.01,2013-03-01 23:22:00,
2013-03-01 17:27:00,27.1,26.6,30.17,North,350,3.1,8.7,98,0.00,,OVC017,0.00,VWS V14.01,2013-03-01 23:27:00,
2013-03-01 17:32:00,27.1,26.6,30.17,NNW,338,4.0,8.3,98,0.00,,OVC017,0.00,VWS V14.01,2013-03-01 23:32:00,
2013-03-01 17:37:00,27.0,26.5,30.17,NNW,328,7.6,8.1,98,0.00,,OVC017,0.00,VWS V14.01,2013-03-01 23:37:00,
2013-03-01 17:42:00,27.0,26.5,30.17,North,357,5.4,9.2,98,0.00,,OVC017,0.00,VWS V14.01,2013-03-01 23:42:00,
2013-03-01 17:47:00,26.8,26.3,30.20,NNW,337,7.6,8.7,98,0.00,,OVC017,0.00,VWS V14.01,2013-03-01 23:47:00,
2013-03-01 17:52:00,26.8,26.3,30.20,NW,323,4.9,10.1,98,0.00,,OVC017,0.00,VWS V14.01,2013-03-01 23:52:00,
2013-03-01 17:57:00,26.8,26.3,30.20,North,0,5.4,6.3,98,0.00,,OVC017,0.00,VWS V14.01,2013-03-01 23:57:00,
2013-03-01 18:02:00,26.6,26.6,30.20,NE,45,5.4,8.1,100,0.00,,,0.00,VWS V14.01,2013-03-02 00:02:00,
2013-03-01 18:07:00,26.6,26.6,30.20,North,3,5.4,8.7,100,0.00,,,0.00,VWS V14.01,2013-03-02 00:07:00,
2013-03-01 18:12:00,26.4,26.4,30.20,NE,41,4.0,8.7,100,0.00,,,0.00,VWS V14.01,2013-03-02 00:12:00,
2013-03-01 18:17:00,26.4,26.4,30.20,North,0,4.0,8.7,100,0.00,,,0.00,VWS V14.01,2013-03-02 00:17:00,
2013-03-01 18:22:00,26.4,26.4,30.20,North,1,5.8,10.1,100,0.00,,OVC015,0.00,VWS V14.01,2013-03-02 00:22:00,
2013-03-01 18:27:00,26.2,26.2,30.20,North,1,8.3,12.8,100,0.00,,OVC015,0.00,VWS V14.01,2013-03-02 00:27:00,
2013-03-01 18:33:00,26.1,26.1,30.20,North,0,6.7,10.1,100,0.00,,OVC015,0.00,VWS V14.01,2013-03-02 00:33:00,
2013-03-01 18:38:00,26.1,26.1,30.20,North,4,3.1,5.4,100,0.00,,OVC015,0.00,VWS V14.01,2013-03-02 00:38:00,
2013-03-01 18:43:00,26.1,26.1,30.20,North,350,5.8,10.5,100,0.00,,OVC055,0.00,VWS V14.01,2013-03-02 00:43:00,
2013-03-01 18:48:00,26.1,26.1,30.20,North,353,6.3,11.0,100,0.00,,OVC055,0.00,VWS V14.01,2013-03-02 00:48:00,
2013-03-01 18:53:00,25.9,25.9,30.20,North,353,4.9,10.1,100,0.00,,OVC055,0.00,VWS V14.01,2013-03-02 00:53:00,
2013-03-01 18:58:00,25.9,25.9,30.20,NNW,341,4.0,8.3,100,0.00,,OVC055,0.00,VWS V14.01,2013-03-02 00:58:00,
2013-03-01 19:03:00,25.7,25.7,30.20,NNW,331,5.8,10.5,100,0.00,,OVC055,0.00,VWS V14.01,2013-03-02 01:03:00,
2013-03-01 19:08:00,25.5,25.5,30.20,NE,43,2.2,8.1,100,0.00,,OVC055,0.00,VWS V14.01,2013-03-02 01:08:00,
2013-03-01 19:13:00,25.5,25.5,30.20,NNW,333,8.1,8.3,100,0.00,,OVC055,0.00,VWS V14.01,2013-03-02 01:13:00,
2013-03-01 19:18:00,25.3,25.3,30.23,North,0,6.3,8.7,100,0.00,,OVC055,0.00,VWS V14.01,2013-03-02 01:18:00,
2013-03-01 19:23:00,25.3,25.3,30.23,NNW,337,4.0,6.3,100,0.00,,,0.00,VWS V14.01,2013-03-02 01:23:00,
2013-03-01 19:28:00,25.3,25.3,30.23,North,357,5.4,9.2,100,0.00,,,0.00,VWS V14.01,2013-03-02 01:28:00,
2013-03-01 19:33:00,25.2,25.2,30.23,North,357,5.8,8.7,100,0.00,,,0.00,VWS V14.01,2013-03-02 01:33:00,
2013-03-01 19:39:00,25.2,25.2,30.23,NNW,341,3.1,8.7,100,0.00,,,0.00,VWS V14.01,2013-03-02 01:39:00,
2013-03-01 19:44:00,25.2,25.2,30.23,North,9,3.6,8.3,100,0.00,,,0.00,VWS V14.01,2013-03-02 01:44:00,
2013-03-01 19:49:00,25.2,25.2,30.23,NNW,343,7.2,8.3,100,0.00,,,0.00,VWS V14.01,2013-03-02 01:49:00,
2013-03-01 19:54:00,25.0,25.0,30.23,North,353,8.7,8.7,100,0.00,,,0.00,VWS V14.01,2013-03-02 01:54:00,
2013-03-01 19:59:00,25.0,25.0,30.23,North,353,3.1,8.7,100,0.00,,,0.00,VWS V14.01,2013-03-02 01:59:00,
2013-03-01 20:04:00,25.0,25.0,30.23,North,357,5.8,11.0,100,0.00,,,0.00,VWS V14.01,2013-03-02 02:04:00,
2013-03-01 20:09:00,25.0,25.0,30.23,NNW,345,2.2,8.7,100,0.00,,,0.00,VWS V14.01,2013-03-02 02:09:00,
2013-03-01 20:14:00,25.0,25.0,30.23,North,353,0.0,8.1,100,0.00,,,0.00,VWS V14.01,2013-03-02 02:14:00,
2013-03-01 20:19:00,25.0,25.0,30.23,North,353,4.0,10.5,100,0.00,,,0.00,VWS V14.01,2013-03-02 02:19:00,
2013-03-01 20:24:00,25.0,25.0,30.23,North,357,4.9,11.4,100,0.00,,,0.00,VWS V14.01,2013-03-02 02:24:00,
2013-03-01 20:29:00,25.0,25.0,30.23,NNW,344,3.6,8.3,100,0.00,,,0.00,VWS V14.01,2013-03-02 02:29:00,
2013-03-01 20:34:00,25.0,25.0,30.23,North,353,6.3,9.2,100,0.00,,,0.00,VWS V14.01,2013-03-02 02:34:00,
2013-03-01 20:39:00,25.0,25.0,30.23,North,0,5.4,9.6,100,0.00,,,0.00,VWS V14.01,2013-03-02 02:39:00,
2013-03-01 20:44:00,25.0,25.0,30.23,NE,55,2.2,12.3,100,0.00,,,0.00,VWS V14.01,2013-03-02 02:44:00,
2013-03-01 20:50:00,25.0,25.0,30.23,NNW,339,6.3,8.1,100,0.00,,,0.00,VWS V14.01,2013-03-02 02:50:00,
2013-03-01 20:55:00,25.0,25.0,30.23,NW,321,8.3,8.7,100,0.00,,,0.00,VWS V14.01,2013-03-02 02:55:00,
2013-03-01 20:59:00,25.0,25.0,30.23,North,7,2.7,11.0,100,0.00,,,0.00,VWS V14.01,2013-03-02 02:59:00,
2013-03-01 21:05:00,25.0,25.0,30.23,NNE,29,8.1,8.3,100,0.00,,,0.00,VWS V14.01,2013-03-02 03:05:00,
2013-03-01 21:10:00,25.0,25.0,30.23,North,353,5.8,6.3,100,0.00,,,0.00,VWS V14.01,2013-03-02 03:10:00,
2013-03-01 21:15:00,25.0,25.0,30.23,North,0,3.1,7.6,100,0.00,,,0.00,VWS V14.01,2013-03-02 03:15:00,
2013-03-01 21:20:00,25.0,25.0,30.23,North,0,5.4,8.3,100,0.00,,,0.00,VWS V14.01,2013-03-02 03:20:00,
2013-03-01 21:25:00,25.0,25.0,30.23,NNW,343,6.3,11.0,100,0.00,,,0.00,VWS V14.01,2013-03-02 03:25:00,
2013-03-01 21:30:00,25.0,25.0,30.23,North,0,7.6,7.6,100,0.00,,,0.00,VWS V14.01,2013-03-02 03:30:00,
2013-03-01 21:35:00,25.0,25.0,30.23,North,5,6.3,7.6,100,0.00,,,0.00,VWS V14.01,2013-03-02 03:35:00,
2013-03-01 21:40:00,25.0,25.0,30.23,WNW,302,8.1,8.1,100,0.00,,,0.00,VWS V14.01,2013-03-02 03:40:00,
2013-03-01 21:45:00,25.0,25.0,30.23,North,0,6.3,6.3,100,0.00,,,0.00,VWS V14.01,2013-03-02 03:45:00,
2013-03-01 21:50:00,25.0,25.0,30.23,North,357,5.4,5.4,100,0.00,,,0.00,VWS V14.01,2013-03-02 03:50:00,
2013-03-01 21:55:00,25.0,25.0,30.23,North,353,0.0,0.0,100,0.00,,,0.00,VWS V14.01,2013-03-02 03:55:00,
2013-03-01 22:00:00,25.0,25.0,30.23,NNW,346,4.0,4.9,100,0.00,,,0.00,VWS V14.01,2013-03-02 04:00:00,
2013-03-01 22:05:00,25.0,25.0,30.23,NE,52,2.2,3.6,100,0.00,,,0.00,VWS V14.01,2013-03-02 04:05:00,
2013-03-01 22:10:00,25.0,25.0,30.23,NNW,344,8.1,10.5,100,0.00,,,0.00,VWS V14.01,2013-03-02 04:10:00,
2013-03-01 22:15:00,25.0,25.0,30.23,NNE,33,7.2,7.2,100,0.00,,,0.00,VWS V14.01,2013-03-02 04:15:00,
2013-03-01 22:20:00,25.0,25.0,30.23,North,357,7.6,8.3,100,0.00,,,0.00,VWS V14.01,2013-03-02 04:20:00,
2013-03-01 22:26:00,25.0,25.0,30.23,NNW,328,10.1,10.1,100,0.00,,OVC050,0.00,VWS V14.01,2013-03-02 04:26:00,
2013-03-01 22:31:00,25.0,25.0,30.23,NE,37,2.7,5.8,100,0.00,,OVC050,0.00,VWS V14.01,2013-03-02 04:31:00,
2013-03-01 22:36:00,25.0,25.0,30.23,North,357,5.8,7.2,100,0.00,,OVC050,0.00,VWS V14.01,2013-03-02 04:36:00,
2013-03-01 22:41:00,25.0,25.0,30.23,NNW,345,11.0,11.0,100,0.00,,OVC050,0.00,VWS V14.01,2013-03-02 04:41:00,
2013-03-01 22:46:00,25.0,25.0,30.23,NNW,332,8.1,8.1,100,0.00,,OVC050,0.00,VWS V14.01,2013-03-02 04:46:00,
2013-03-01 22:51:00,24.8,24.8,30.23,North,2,11.9,11.9,100,0.00,,OVC050,0.00,VWS V14.01,2013-03-02 04:51:00,
2013-03-01 22:56:00,24.8,24.8,30.23,North,353,6.3,6.3,100,0.00,,OVC050,0.00,VWS V14.01,2013-03-02 04:56:00,
2013-03-01 23:00:00,24.8,24.8,30.23,NNE,19,4.9,8.3,100,0.00,,OVC050,0.00,VWS V14.01,2013-03-02 05:00:00,
2013-03-01 23:01:00,24.8,24.8,30.23,North,353,8.1,8.1,100,0.00,,OVC050,0.00,VWS V14.01,2013-03-02 05:01:00,
2013-03-01 23:03:00,24.8,24.8,30.23,North,353,15.0,15.4,100,0.00,,OVC040,0.00,VWS V14.01,2013-03-02 05:03:00,
2013-03-01 23:08:00,24.8,24.8,30.23,North,0,10.1,10.1,100,0.00,,OVC040,0.00,VWS V14.01,2013-03-02 05:08:00,
2013-03-01 23:13:00,24.8,24.8,30.23,North,357,6.3,8.1,100,0.00,,OVC040,0.00,VWS V14.01,2013-03-02 05:13:00,
2013-03-01 23:18:00,24.8,24.8,30.23,NNW,335,7.6,11.0,100,0.00,,OVC040,0.00,VWS V14.01,2013-03-02 05:18:00,
2013-03-01 23:23:00,24.8,24.8,30.23,NNW,332,6.3,6.3,100,0.00,,OVC038,0.00,VWS V14.01,2013-03-02 05:23:00,
2013-03-01 23:28:00,24.8,24.8,30.23,North,6,4.0,10.5,100,0.00,,OVC038,0.00,VWS V14.01,2013-03-02 05:28:00,
2013-03-01 23:33:00,24.8,24.8,30.20,North,357,5.8,10.5,100,0.00,,OVC038,0.00,VWS V14.01,2013-03-02 05:33:00,
2013-03-01 23:38:00,24.8,24.8,30.20,North,0,11.4,11.4,100,0.00,,OVC038,0.00,VWS V14.01,2013-03-02 05:38:00,
2013-03-01 23:43:00,24.8,24.8,30.20,NE,38,2.7,12.8,100,0.00,,OVC032,0.00,VWS V14.01,2013-03-02 05:43:00,
2013-03-01 23:48:00,24.8,24.8,30.20,North,0,5.4,10.1,100,0.00,,OVC032,0.00,VWS V14.01,2013-03-02 05:48:00,
2013-03-01 23:53:00,24.8,24.8,30.20,NE,48,3.6,11.0,100,0.00,,OVC032,0.00,VWS V14.01,2013-03-02 05:53:00,
2013-03-01 23:58:00,24.8,24.8,30.20,NNW,345,5.8,8.1,100,0.00,,OVC032,0.00,VWS V14.01,2013-03-02 05:58:00,